Location: Les Chalmettes
(44.6667°N, 6.8167°E)
Time: 15:14:38
(UTC+00:00)

Daily predictions for brighter satellites

Satellite Brightness Start Highest point End
(mag) Time Altitude Azimuth Time Altitude Azimuth Time Altitude Azimuth
Meteor 1-10 Rocket 4.2 19:31:33 10° S 19:37:04 72° E 19:42:40 10° NNE
JB-3 4.5 19:35:00 10° NNE 19:39:09 66° E 19:43:16 10° S
USA 238 DEB 4.4 19:32:34 10° NW 19:39:48 62° WSW 19:47:21 10° SSE
USA 238 4.4 19:32:41 10° NW 19:39:54 63° WSW 19:47:29 10° SSE
Cosmos 1933 Rocket 4.5 19:37:20 10° N 19:41:25 33° ENE 19:45:28 10° SE
EXPRESS MD2 3.9 19:35:05 10° WNW 19:42:16 79° NNE 19:45:50 10° ESE
Cosmos 1666 Rocket 3.9 19:39:12 10° NNW 19:43:35 69° W 19:47:59 10° S
Cosmos 1515 4.1 19:40:14 10° SSE 19:43:49 43° E 19:47:25 10° NNE
SPOT 1/Viking Rocket 3.9 19:40:44 10° SE 19:45:42 51° ENE 19:50:42 10° N
CZ-4B R/B 1.5 19:42:44 10° NNE 19:45:50 45° E 19:48:51 10° S
Resurs 1-3 3.9 19:42:06 10° S 19:46:28 70° WSW 19:50:53 10° NNW
Meteor 1-27 Rocket 4.0 19:40:53 10° S 19:46:29 55° E 19:52:12 10° NNE
CZ-4 R/B 4.3 19:46:52 10° WSW 19:48:50 13° W 19:50:50 10° WNW
Cosmos 1633 Rocket 3.4 19:47:26 10° NNW 19:51:48 68° W 19:56:07 10° S
Cosmos 2219 3.3 19:47:14 10° NNW 19:52:53 83° WSW 19:58:30 10° SSE
SJ 16-02 2.5 19:49:44 10° SSE 19:53:17 24° E 19:56:50 10° NE
H-2A R/B 4.1 19:49:38 10° SSW 19:53:37 34° W 19:57:32 10° NNW
OE (NEXTSAT) 4.3 19:50:35 10° WSW 19:53:49 55° SSE 19:57:04 10° E
Cosmos 1340 2.9 19:50:32 10° S 19:54:08 49° E 19:57:46 10° NNE
Cosmos 1315 Rocket 3.8 19:51:04 10° NNW 19:55:00 48° W 19:58:52 10° S
USA 186 4.3 19:56:54 10° WSW 19:57:50 11° W 19:58:44 10° WNW
Cosmos 2082 3.9 19:54:07 10° NNW 19:59:42 60° ENE 20:04:59 11° SE
OBJECT-B 3.9 19:59:20 10° W 19:59:47 10° W 20:00:13 10° W
Meteor 1-11 Rocket 3.9 19:54:55 10° N 20:00:56 90° W 20:06:52 10° S
Cosmos 2263 Rocket 3.2 19:57:37 10° N 20:02:41 34° NE 20:07:29 11° ESE
Cosmos 1470 Rocket 3.5 19:58:51 10° N 20:03:12 88° W 20:07:31 10° S
Ariane Rocket 3.0 20:00:31 10° SSE 20:05:33 72° ENE 20:10:38 10° N
Cosmos 1743 2.6 20:02:37 10° N 20:06:25 70° E 20:10:10 10° SSE
SPOT 5 4.0 20:06:30 12° SE 20:10:47 32° ENE 20:15:18 10° N
BREEZE-M DEB (TANK) 3.6 20:08:22 10° W 20:11:06 34° NNW 20:13:08 10° NE
Terra 3.4 20:09:04 11° ESE 20:12:30 22° ENE 20:16:08 10° NNE
IRAS Rocket 4.3 20:06:58 10° NNE 20:12:38 80° ESE 20:18:16 10° SSW
Resurs 01 Rocket 1.8 20:09:55 10° S 20:14:18 72° WSW 20:18:44 10° NNW
Aureole 1 Rocket 2.5 20:12:59 10° SSW 20:16:12 68° WNW 20:19:10 10° NNE
Cosmos 1515 Rocket 3.6 20:12:30 10° S 20:16:52 81° W 20:21:17 10° N
Cosmos 2227 Rocket 3.1 20:15:23 10° NW 20:20:46 45° WSW 20:26:07 10° S
Cosmos 921 Rocket 3.1 20:17:33 10° NNW 20:22:04 72° ENE 20:25:38 16° SSE
SWAS 4.4 20:23:56 10° NNW 20:28:16 81° ENE 20:31:20 19° SSE
Cosmos 1980 Rocket 2.1 20:23:19 10° SSW 20:28:56 81° ESE 20:34:38 10° NNE
CARTOSAT-1 3.5 20:26:14 15° SSE 20:29:46 77° ENE 20:34:05 10° N
Cosmos 1869 Rocket 3.9 20:27:07 10° N 20:31:32 53° ENE 20:34:33 19° SSE
Cosmos 2228 Rocket 3.5 20:29:01 15° SSE 20:32:33 47° E 20:36:55 10° NNE
Cosmos 1464 Rocket 4.1 20:27:23 10° SSW 20:33:36 77° W 20:39:47 10° N
Cosmos 1378 3.9 20:34:32 22° SE 20:36:09 33° E 20:39:29 10° NNE
Cosmos 2344 3.5 20:29:39 10° SW 20:37:14 90° NW 20:44:54 10° NE
Cosmos 2322 Rocket 3.6 20:36:17 17° ESE 20:37:49 19° E 20:41:34 10° ENE
Cosmos 1777 Rocket 4.1 20:33:10 10° S 20:38:13 54° ESE 20:43:21 10° NNE
Cosmos 2369 3.9 20:33:00 10° SSW 20:38:39 75° WNW 20:44:20 10° NNE
ISS -3.0 20:35:53 10° NW 20:39:10 48° NNE 20:41:27 17° E
Spot 2 Rocket 3.7 20:35:42 19° SE 20:39:15 58° ENE 20:44:13 10° N
Cosmos 1354 Rocket 4.0 20:34:10 10° SSW 20:39:26 88° ESE 20:44:47 10° NNE
SPOT 3 Rocket 3.5 20:36:10 15° SSE 20:40:25 89° WSW 20:45:37 10° NNW
Cosmos 773 Rocket 4.0 20:36:31 10° NNW 20:41:46 78° ENE 20:45:19 21° SSE
ATLAS 2AS CENTAUR R/B 2.9 20:34:04 10° SSW 20:41:51 72° ESE 20:49:25 10° NE
Cosmos 1536 4.2 20:38:12 10° NNW 20:41:56 37° W 20:45:39 10° SSW
Okean 1 3.2 20:40:11 12° S 20:43:52 88° E 20:47:54 10° N
Meteor 2-4 Rocket 4.2 20:40:22 18° SSE 20:44:19 43° E 20:49:39 10° NNE
Meteor 1-19 Rocket 4.1 20:40:30 10° S 20:45:55 82° E 20:51:22 10° NNE
H-2A R/B 4.4 20:43:12 10° NNW 20:46:28 24° WNW 20:49:44 10° WSW
RESURS DK-1 2.2 20:43:43 10° SSW 20:47:49 76° ESE 20:51:57 10° NNE
Cosmos 1092 Rocket 4.1 20:41:46 10° N 20:47:54 62° E 20:52:05 21° SSE
Cosmos 1697 Rocket 4.2 20:42:43 10° SW 20:48:01 40° NW 20:53:21 10° NNE
Nadezhda 4 Rocket 4.1 20:42:29 10° N 20:48:43 78° W 20:54:07 14° S
SL-4 R/B 3.4 20:46:06 10° WNW 20:50:03 30° SW 20:52:09 20° S
Meteor 2-14 Rocket 4.4 20:45:35 10° N 20:51:41 86° W 20:56:33 17° S
Cosmos 1634 Rocket 4.2 20:49:58 19° SSE 20:54:19 53° E 21:00:19 10° NNE
ARIANE 5 R/B 3.3 20:53:39 24° SE 20:55:51 42° ENE 21:00:06 10° N
Cosmos 1707 Rocket 4.0 20:54:13 26° SSE 20:56:16 44° E 21:00:28 10° NNE
ATLAS CENTAUR R/B 4.2 20:54:17 10° N 20:57:08 15° NNE 20:59:56 10° ENE
Cosmos 44 Rocket 3.4 20:54:17 10° NNW 20:58:57 60° NE 21:01:28 26° SE
Cosmos 2227 4.4 20:58:58 10° NNW 21:04:43 66° ENE 21:07:59 26° SE
Cosmos 158 Rocket 4.0 21:01:28 10° NNW 21:06:38 76° ENE 21:09:24 28° SSE
ATLAS 3B R/B 3.3 21:00:50 10° NNW 21:08:05 58° NE 21:13:24 20° ESE
NOSS 2-1 (E) 3.0 21:08:10 43° ESE 21:08:10 43° ESE 21:11:14 10° NE
USA 81 4.1 21:09:00 26° SSE 21:11:54 63° E 21:17:07 10° NNE
Cosmos 1975 2.7 21:07:51 10° N 21:11:56 82° E 21:13:33 35° SSE
Cosmos 2026 Rocket 3.9 21:06:59 10° N 21:13:11 82° E 21:17:00 25° SSE
ERS-1 Rocket 3.0 21:12:32 26° S 21:15:24 80° WSW 21:20:29 10° NNW
SL-16 R/B 2.3 21:13:28 24° S 21:16:44 53° ESE 21:22:15 10° NE
Meteor 1-4 Rocket 3.8 21:16:14 10° NNE 21:19:12 26° ENE 21:19:36 25° E
Helios 1A Rocket 3.8 21:19:01 23° SSW 21:21:07 42° W 21:24:57 10° NNW
Cosmos 1538 Rocket 4.0 21:16:44 10° NNW 21:22:00 73° ENE 21:24:18 34° SE
GENESIS II 4.0 21:20:47 22° SSW 21:23:12 83° SE 21:27:08 10° NE
CZ-2C R/B 3.9 21:19:42 10° N 21:24:29 77° WNW 21:27:47 20° SSW
Cosmos 1733 Rocket 3.1 21:21:48 10° N 21:26:15 69° E 21:27:44 40° SSE
Meteor 2-8 Rocket 4.4 21:25:01 23° S 21:29:03 87° E 21:35:11 10° N
OE (NEXTSAT) 4.4 21:27:30 10° W 21:30:48 68° N 21:32:08 32° ENE
Geosat 4.4 21:28:35 30° ESE 21:30:51 55° ENE 21:35:46 10° NNW
SJ 16-02 3.0 21:27:43 10° SW 21:31:40 33° WNW 21:35:39 10° N
SAR-Lupe-4 3.6 21:29:29 10° NNE 21:33:03 59° ESE 21:33:21 56° SE
Cosmos 1356 4.3 21:35:10 33° ENE 21:35:10 33° ENE 21:37:44 10° NNE
Cosmos 2292 Rocket 3.9 21:35:01 10° NNW 21:37:44 32° W 21:38:15 30° WSW
Cosmos 1862 Rocket 3.5 21:37:31 42° S 21:39:00 80° E 21:43:30 10° N
Cosmos 2360 Rocket 2.7 21:40:42 35° SE 21:41:52 39° ESE 21:47:04 10° NE
BREEZE M DEB (TANK) 4.4 21:38:29 10° WNW 21:43:26 64° SSW 21:55:47 21° SE
Meteor 2-15 4.5 21:41:00 24° SSW 21:44:49 78° W 21:50:56 10° N
Cosmos 1726 3.7 21:42:02 10° NNE 21:45:02 23° ENE 21:45:09 23° ENE
Meteor 1-13 Rocket 4.4 21:44:29 38° SSE 21:46:19 54° E 21:51:43 10° NNE
Cosmos 2263 Rocket 3.1 21:41:30 10° NW 21:46:39 39° WSW 21:49:11 25° SSW
NOSS 2-1 (C) 3.5 21:46:45 22° WSW 21:48:34 51° NW 21:51:44 10° NNE
SPOT 5 4.2 21:45:43 20° SSW 21:48:44 36° W 21:53:29 10° NNW
Cosmos 2266 Rocket 4.4 21:42:57 10° N 21:48:58 48° ENE 21:51:20 33° SE
Terra 2.5 21:47:57 29° SSW 21:49:57 46° W 21:54:33 10° NNW
Cosmos 1441 Rocket 2.9 21:51:04 70° S 21:51:28 88° E 21:55:11 10° N
Cosmos 1346 Rocket 3.6 21:50:23 27° SW 21:52:10 46° WNW 21:56:04 10° N
SAR-Lupe-1 4.3 21:50:31 10° N 21:54:04 63° WNW 21:54:47 50° SW
Cosmos 2279 Rocket 4.0 21:53:29 29° SSW 21:56:50 82° W 22:03:06 10° N
NOSS 2-1 (D) 4.1 21:56:58 17° WSW 21:59:03 39° NW 22:02:08 10° NNE
Cosmos 990 Rocket 3.9 21:57:54 40° S 21:59:50 80° ESE 22:05:06 10° NNE
USA 215 3.4 21:54:53 10° ENE 22:01:12 48° SE 22:03:42 33° S
MINOTAUR IV R/B 4.5 22:00:17 48° SSW 22:01:31 90° SSE 22:06:03 10° NNE
Cosmos 1680 Rocket 3.9 21:56:34 10° NNW 22:01:46 54° ENE 22:03:25 39° ESE
Iridium 2 3.8 22:00:18 10° N 22:04:01 63° W 22:04:23 59° WSW
Meteor 1-12 Rocket 4.3 22:01:00 10° N 22:06:58 71° ENE 22:08:54 43° SSE
Cosmos 1066 Rocket 4.2 22:05:06 37° SSW 22:07:30 87° W 22:13:12 10° N
ADEOS Rocket 4.4 22:05:31 18° E 22:08:16 26° ENE 22:13:05 10° N
Spot 4 4.5 22:07:13 37° ESE 22:08:23 45° ENE 22:12:57 10° N
Cosmos 1818 4.1 22:04:36 10° NNW 22:09:58 53° NE 22:12:08 33° ESE
Iridium 4 Rocket 3.5 22:08:18 10° N 22:12:53 59° E 22:13:44 51° SE
Cosmos 1898 Rocket 3.5 22:11:50 49° S 22:13:11 71° ESE 22:18:30 10° NNE
ISS -1.7 22:12:51 10° WNW 22:14:21 21° W 22:14:21 21° W
Cosmos 1900 4.4 22:15:19 55° SSE 22:16:01 62° ESE 22:21:05 10° NE
Okean 1-7 2.9 22:17:25 68° SE 22:17:49 75° E 22:22:12 10° NNE
Iridium 51 4.2 22:21:01 69° NW 22:21:01 69° NW 22:24:17 10° N
Cosmos 2322 Rocket 2.4 22:18:02 26° SW 22:21:15 67° WNW 22:26:52 10° NNE
Okean 3 3.4 22:25:02 67° ESE 22:25:06 67° E 22:29:20 10° NNE
Cosmos 2322 4.4 22:25:29 36° ESE 22:25:53 36° ESE 22:31:04 10° NE
Cosmos 2333 Rocket 2.4 22:25:18 47° SE 22:26:04 50° ESE 22:31:32 10° NE
Cosmos 1844 Rocket 2.6 22:20:54 10° NNW 22:26:31 88° WSW 22:27:57 52° SSE
Cosmos 1805 3.9 22:24:33 10° NNW 22:28:18 45° W 22:28:28 44° WSW
ARIANE 5 R/B 4.5 22:31:11 18° WSW 22:32:28 20° W 22:35:51 10° NW
H-2A R/B 3.8 22:28:38 10° NNE 22:32:20 50° E 22:32:20 50° E
BREEZE-M DEB (TANK) 3.1 22:29:52 10° WNW 22:31:52 41° WSW 22:31:52 41° WSW
ATLAS 2AS CENTAUR R/B 4.4 22:26:23 10° WSW 22:33:25 36° NW 22:40:15 10° NNE
Meteor 1-23 Rocket 4.2 22:34:01 50° S 22:35:37 81° E 22:41:29 10° NNE
USA 267 4.0 22:30:06 10° E 22:36:24 52° NNE 22:42:42 10° NW
ATLAS CENTAUR R/B 1.9 22:32:04 10° NNW 22:36:55 63° NE 22:37:50 51° ESE
Cosmos 1766 3.5 22:39:37 10° NNW 22:43:23 59° W 22:43:23 59° W
Cosmos 2219 Rocket 2.3 22:44:47 51° SE 22:45:25 54° ESE 22:50:51 10° NE
Cosmos 1703 Rocket 4.0 22:48:15 50° WSW 22:48:54 55° WNW 22:53:15 10° N
Cosmos 1844 3.8 22:44:27 10° NNW 22:50:15 69° WSW 22:51:27 54° S
Cosmos 372 Rocket 3.8 22:51:17 65° S 22:52:00 80° ESE 22:57:11 10° NNE
ATLAS 3B R/B 3.6 22:51:56 10° NW 22:58:38 38° WSW 23:00:38 32° SW
Cosmos 1707 3.3 23:00:36 51° ENE 23:00:36 51° ENE 23:03:51 10° NNE
SL-16 R/B 4.0 22:56:21 10° WSW 23:01:09 27° NW 23:05:58 10° N
Cosmos 1655 Rocket 4.5 22:56:16 10° NNW 23:02:14 50° W 23:04:10 38° SW
NOSS 3-1 (A) 4.5 22:55:10 10° NNW 23:02:27 59° NE 23:08:57 18° ESE
Cosmos 1782 Rocket 3.8 23:00:29 10° NNW 23:04:46 55° W 23:04:50 55° W
Okean 2 4.1 23:06:39 42° ENE 23:06:39 42° ENE 23:10:07 10° NNE
ERS-2 2.6 23:03:53 10° NNE 23:06:52 58° N 23:06:52 58° N
CZ-4C R/B 3.2 23:01:54 10° NW 23:09:08 70° NE 23:14:17 26° SE
USA 290 4.4 23:10:46 22° NE 23:10:46 22° NE 23:12:11 10° NE
NOSS 3-1 (C) 4.0 23:02:18 10° NW 23:09:52 90° WSW 23:14:03 35° SE
Cosmos 1238 Rocket 4.3 23:10:19 10° NNE 23:11:57 22° NE 23:11:57 22° NE
Cosmos 2237 Rocket 3.5 23:14:56 25° ESE 23:15:16 25° ESE 23:19:47 10° NE
COSMOS 2428 2.6 23:17:53 60° SSE 23:18:47 71° ESE 23:24:27 10° NNE
Cosmos 1470 3.3 23:15:45 10° NNW 23:19:01 51° WNW 23:19:01 51° WNW
Cosmos 1726 4.0 23:16:59 10° NW 23:19:26 22° WNW 23:19:26 22° WNW
Cosmos 1300 Rocket 3.5 23:16:35 10° NNW 23:20:51 70° W 23:20:51 70° W
ALOS 2 2.9 23:22:00 54° W 23:22:00 54° W 23:26:15 10° NNW
PSLV R/B 4.0 23:19:27 10° NNE 23:23:40 50° E 23:23:40 50° E
Cosmos 2151 Rocket 3.9 23:19:27 10° N 23:23:47 56° ENE 23:23:57 55° E
USA 305 4.5 23:26:44 25° E 23:26:44 25° E 23:28:44 10° ENE
Cosmos 2360 Rocket 3.5 23:22:25 18° WSW 23:25:54 35° NW 23:31:03 10° N
Cosmos 1242 Rocket 3.2 23:23:15 10° N 23:26:07 52° N 23:26:07 52° N
Cosmos 405 Rocket 3.9 23:28:20 34° ENE 23:28:20 34° ENE 23:31:08 10° NNE
Okean 2 Rocket 3.1 23:23:22 10° N 23:27:54 72° E 23:28:05 71° E
In-Cosmos 22 4.1 23:29:31 61° S 23:30:33 89° W 23:36:05 10° N
Cosmos 1437 Rocket 3.9 23:30:15 10° N 23:33:33 34° ENE 23:33:33 34° ENE
Cosmos 1867 3.5 23:33:44 60° SW 23:34:46 90° NNW 23:40:17 10° NE
Nimbus 7 Rocket 4.3 23:29:03 10° NNE 23:34:56 73° ESE 23:36:12 55° SSE
Cosmos 2298 Rocket 4.4 23:34:33 45° ESE 23:34:59 46° ESE 23:40:03 10° NNE
Cosmos 1908 3.7 23:31:31 10° N 23:34:48 55° NE 23:34:48 55° NE
Meteor 1-21 4.3 23:34:35 54° SSW 23:35:56 77° W 23:41:47 10° N
Cosmos 1626 2.7 23:37:36 54° NNE 23:37:36 54° NNE 23:40:33 10° NNE
SL-08 R/B 4.4 23:33:25 10° N 23:39:44 89° E 23:41:27 52° S
USA 215 3.7 23:37:53 10° NE 23:44:18 60° NNW 23:50:43 10° WSW
Cosmos 1953 3.1 23:40:55 10° N 23:44:45 43° ENE 23:44:46 43° ENE
Cosmos 2278 Rocket 2.5 23:41:05 10° NNW 23:46:43 60° ENE 23:48:50 37° SE
Cosmos 468 4.5 23:42:48 10° NNW 23:48:03 78° ENE 23:49:03 58° SE
Cosmos 1674 3.2 23:50:45 52° NW 23:50:45 52° NW 23:53:57 10° N
ADEOS Rocket 3.1 23:52:27 46° SW 23:53:24 51° W 23:59:13 10° NNW
Sich 1 Rocket 4.1 23:49:53 10° NNW 23:54:00 46° W 23:54:00 46° W
